カタログに戻る

STARLINK-3333

運用中通信VLEO
NORAD 50805·PAYLOAD·🇺🇸 United States

打ち上げ Jan 6, 2022 から Cape Canaveral Space Force Station

Loading…

次のパス (今後24時間)

TLE

最新Source: CelesTrak SupGP

元期: Sep 14, 2026, 21:12 UTC

1 50805C 22001C   26257.88381944  .00035303  00000+0  14708-2 0  2572
2 50805  53.1414  24.8748 0002395 297.5548 195.4069 15.23173038    18

AllMySatでSTARLINK-3333をリアルタイム追跡

Download on the App Store